カタログに戻る

PACE-1

運用中科学PO
NORAD 48909·PAYLOAD·🇺🇸 United States

打ち上げ Jun 30, 2021 から Cape Canaveral Space Force Station

Loading…

次のパス (今後24時間)

TLE

最新Source: Space-Track

元期: Sep 14, 2026, 12:35 UTC

1 48909U 21059AG  26257.52454196  .00619546  21417-3  56918-3 0  9996
2 48909  97.6671 107.3423 0003116 235.1508 124.9484 16.12459941292000

AllMySatでPACE-1をリアルタイム追跡

Download on the App Store